DW4238 Weather Reports


time (UTC)temp
C
wind
direction
speed
KPH
gust
KPH
rain 1hr
cm
rain 24hr
cm
rain mn
cm
humidity
%
barometer
mb
20260505100044 21 200 17.7 30.6 0.00 0.00 0.00 91 1007.1
20260505095553 21 196 14.5 20.9 0.00 0.00 0.00 90 1007.1
20260505094547 21 214 12.9 24.1 0.00 0.00 0.00 90 1007.0
20260505094053 21 192 16.1 24.1 0.00 0.00 0.00 90 1007.0
20260505093558 21 192 12.9 20.9 0.00 0.00 0.00 90 1006.9
20260505093029 21 186 14.5 22.5 0.00 0.00 0.00 90 1007.0
20260505092532 21 200 14.5 24.1 0.00 0.00 0.00 90 1007.1
20260505091552 21 202 16.1 22.5 0.00 0.00 0.00 89 1007.3
20260505091102 21 208 12.9 30.6 0.00 0.00 0.00 89 1007.3
20260505090558 21 217 19.3 29.0 0.00 0.00 0.00 89 1007.2
20260505090025 21 209 17.7 27.4 0.00 0.00 0.00 89 1007.1
20260505085541 21 184 16.1 29.0 0.00 0.00 0.00 89 1007.1
20260505085141 21 196 16.1 29.0 0.00 0.00 0.00 89 1007.2
20260505084549 21 202 17.7 25.7 0.00 0.00 0.00 89 1007.3
20260505084102 21 204 20.9 25.7 0.00 0.00 0.00 89 1007.4
20260505083103 21 194 16.1 22.5 0.00 0.00 0.00 89 1007.7
20260505082606 21 186 12.9 25.7 0.00 0.00 0.00 89 1007.8
20260505082116 21 205 14.5 22.5 0.00 0.00 0.00 89 1007.8
20260505081544 21 204 14.5 22.5 0.00 0.00 0.00 88 1007.8
20260505081046 21 219 14.5 25.7 0.00 0.00 0.00 88 1007.7
20260505080109 21 199 12.9 20.9 0.00 0.00 0.00 88 1007.9
20260505075601 21 190 12.9 19.3 0.00 0.00 0.00 88 1008.0
20260505075101 21 190 12.9 19.3 0.00 0.00 0.00 88 1008.0
20260505074531 21 185 14.5 24.1 0.00 0.00 0.00 88 1007.9
20260505074123 21 203 14.5 20.9 0.00 0.00 0.00 88 1007.9
20260505073626 21 196 12.9 24.1 0.00 0.00 0.00 88 1008.1
20260505073049 21 180 14.5 24.1 0.00 0.00 0.00 88 1008.2
20260505072558 21 190 11.3 16.1 0.00 0.00 0.00 88 1008.2
20260505071620 21 189 12.9 22.5 0.00 0.00 0.00 88 1008.4
20260505071028 21 196 11.3 16.1 0.00 0.00 0.00 88 1008.4
20260505070636 21 191 11.3 16.1 0.00 0.00 0.00 88 1008.5
20260505070044 21 175 11.3 16.1 0.00 0.00 0.00 88 1008.4
20260505065526 21 183 11.3 16.1 0.00 0.00 0.00 88 1008.6
20260505065034 21 185 11.3 17.7 0.00 0.00 0.00 88 1008.6
20260505064536 21 178 11.3 19.3 0.00 0.00 0.00 88 1008.6
20260505064046 21 180 11.3 20.9 0.00 0.00 0.00 88 1008.6
20260505063547 21 178 12.9 22.5 0.00 0.00 0.00 88 1008.5
20260505063026 21 172 12.9 22.5 0.00 0.00 0.00 88 1008.4
20260505062535 21 147 12.9 22.5 0.00 0.00 0.00 87 1008.4
20260505062044 21 183 12.9 24.1 0.00 0.00 0.00 87 1008.5
20260505061536 21 175 12.9 24.1 0.00 0.00 0.00 87 1008.5
20260505061025 21 185 14.5 24.1 0.00 0.00 0.00 87 1008.5
20260505060524 21 182 16.1 24.1 0.00 0.00 0.00 87 1008.5
20260505060028 21 146 16.1 22.5 0.00 0.00 0.00 87 1008.5
20260505055556 21 177 16.1 20.9 0.00 0.00 0.00 86 1008.5
20260505055043 21 181 16.1 32.2 0.00 0.00 0.00 86 1008.5
20260505054535 21 186 16.1 30.6 0.00 0.00 0.00 86 1008.5
20260505054112 21 182 17.7 32.2 0.00 0.00 0.00 86 1008.6
20260505053533 21 180 19.3 27.4 0.00 0.00 0.00 86 1008.7
20260505053033 21 189 16.1 25.7 0.00 0.00 0.00 86 1008.8
20260505052542 21 185 14.5 25.7 0.00 0.00 0.00 86 1008.7
20260505052050 21 181 14.5 24.1 0.00 0.00 0.00 86 1008.8
20260505051542 21 185 17.7 22.5 0.00 0.00 0.00 85 1008.7
20260505051033 21 192 16.1 25.7 0.00 0.00 0.00 85 1008.7
20260505050536 21 191 16.1 25.7 0.00 0.00 0.00 85 1008.8
20260505050122 21 184 17.7 22.5 0.00 0.00 0.00 85 1008.8
20260505041531 21 172 17.7 25.7 0.00 0.00 0.00 83 1009.3
20260505041034 21 171 16.1 25.7 0.00 0.00 0.00 83 1009.2
20260505040104 22 188 12.9 24.1 0.00 0.00 0.00 82 1009.3
20260505035611 22 171 17.7 24.1 0.00 0.00 0.00 81 1009.2
20260505035117 22 191 17.7 27.4 0.00 0.00 0.00 81 1009.2
20260505034529 22 189 16.1 29.0 0.00 0.00 0.00 81 1009.0
20260505034030 22 172 19.3 29.0 0.00 0.00 0.00 81 1008.9
20260505033052 22 189 16.1 22.5 0.00 0.00 0.00 81 1009.1
20260505032603 22 187 14.5 20.9 0.00 0.00 0.00 81 1009.2
20260505031603 22 165 14.5 27.4 0.00 0.00 0.00 80 1009.0
20260505031053 22 158 14.5 27.4 0.00 0.00 0.00 80 1009.1
20260505030555 22 186 14.5 17.7 0.00 0.00 0.00 79 1009.1
20260505030025 22 175 14.5 19.3 0.00 0.00 0.00 79 1009.2
20260505025528 22 169 12.9 20.9 0.00 0.00 0.00 79 1009.2
20260505024556 23 186 14.5 30.6 0.00 0.00 0.00 78 1009.1
20260505024059 23 162 16.1 24.1 0.00 0.00 0.00 78 1009.0
20260505023118 23 188 16.1 27.4 0.00 0.00 0.00 78 1009.0
20260505022528 23 166 17.7 27.4 0.00 0.00 0.00 78 1008.8
20260505021027 23 189 16.1 29.0 0.00 0.00 0.00 77 1008.9
20260505020633 23 167 12.9 27.4 0.00 0.00 0.00 77 1008.9
20260505020040 23 157 11.3 16.1 0.00 0.00 0.00 77 1008.9
20260505015542 23 169 11.3 24.1 0.00 0.00 0.00 77 1008.8
20260505014603 23 170 12.9 19.3 0.00 0.00 0.00 76 1008.7
20260505014113 23 165 12.9 22.5 0.00 0.00 0.00 75 1008.7
20260505013623 23 190 14.5 22.5 0.00 0.00 0.00 76 1008.6
20260505013045 23 175 14.5 19.3 0.00 0.00 0.00 75 1008.6
20260505012553 24 169 12.9 29.0 0.00 0.00 0.00 74 1008.6
20260505011553 24 175 17.7 27.4 0.00 0.00 0.00 74 1008.5
20260505011058 24 123 11.3 27.4 0.00 0.00 0.00 73 1008.5
20260505010057 25 190 16.1 25.7 0.00 0.00 0.00 73 1008.3
20260505005546 25 190 16.1 22.5 0.00 0.00 0.00 73 1008.4
20260505004604 25 194 12.9 25.7 0.00 0.00 0.00 73 1008.4
20260505004117 25 198 16.1 25.7 0.00 0.00 0.00 72 1008.4
20260505003619 25 141 16.1 22.5 0.00 0.00 0.00 72 1008.4
20260505003030 25 220 11.3 25.7 0.00 0.00 0.00 72 1008.4
20260505002541 25 155 16.1 25.7 0.00 0.00 0.00 72 1008.5
20260505001601 25 192 17.7 24.1 0.00 0.00 0.00 71 1008.6
20260505001105 25 204 14.5 22.5 0.00 0.00 0.00 71 1008.6
20260505000121 25 182 17.7 30.6 0.00 0.00 0.00 71 1008.7
20260504235610 25 195 20.9 30.6 0.00 0.00 0.00 71 1008.6
20260504235026 25 161 16.1 25.7 0.00 0.00 0.00 71 1008.6
20260504234528 25 166 14.5 25.7 0.00 0.00 0.00 71 1008.8
20260504234114 25 143 20.9 29.0 0.00 0.00 0.00 71 1008.8
20260504233621 25 150 17.7 27.4 0.00 0.00 0.00 71 1008.9
20260504233025 25 179 19.3 27.4 0.00 0.00 0.00 70 1008.8
20260504232527 26 192 16.1 30.6 0.00 0.00 0.00 70 1009.0
20260504231554 26 190 20.9 30.6 0.00 0.00 0.00 70 1008.8
20260504231058 26 180 17.7 29.0 0.00 0.00 0.00 70 1008.9
20260504230608 26 171 16.1 29.0 0.00 0.00 0.00 69 1009.0
20260504230028 26 163 17.7 29.0 0.00 0.00 0.00 68 1009.0
20260504225538 26 179 20.9 32.2 0.00 0.00 0.00 68 1008.9
20260504224541 26 183 20.9 27.4 0.00 0.00 0.00 66 1009.2
20260504224051 26 166 14.5 25.7 0.00 0.00 0.00 66 1009.2
20260504223053 26 132 16.1 27.4 0.00 0.00 0.00 66 1009.2
20260504222557 26 162 20.9 27.4 0.00 0.00 0.00 64 1009.3
20260504222105 27 190 19.3 27.4 0.00 0.00 0.00 62 1009.1
20260504221532 27 191 17.7 29.0 0.00 0.00 0.00 63 1009.2
20260504221034 27 150 19.3 29.0 0.00 0.00 0.00 63 1009.2
20260504220059 27 151 14.5 25.7 0.00 0.00 0.00 64 1009.2
20260504215609 27 196 14.5 25.7 0.00 0.00 0.00 64 1009.3
20260504215120 27 183 17.7 30.6 0.00 0.00 0.00 64 1009.5
20260504214540 27 142 20.9 30.6 0.00 0.00 0.00 63 1009.5
20260504214052 26 194 17.7 29.0 0.00 0.00 0.00 64 1009.6
20260504213050 26 185 17.7 25.7 0.00 0.00 0.00 65 1009.8
20260504212535 26 177 17.7 24.1 0.00 0.00 0.00 63 1009.9
20260504211559 26 169 16.1 25.7 0.00 0.00 0.00 64 1010.1
20260504211109 26 172 12.9 24.1 0.00 0.00 0.00 64 1010.3
20260504210615 26 185 16.1 24.1 0.00 0.00 0.00 64 1010.3
20260504210040 26 215 16.1 20.9 0.00 0.00 0.00 65 1010.5
20260504205544 26 195 14.5 19.3 0.00 0.00 0.00 64 1010.5
20260504204553 26 225 17.7 22.5 0.00 0.00 0.00 63 1010.6
20260504204057 26 199 16.1 20.9 0.00 0.00 0.00 64 1010.8
20260504203607 26 201 12.9 20.9 0.00 0.00 0.00 64 1010.8
20260504203038 26 186 17.7 24.1 0.00 0.00 0.00 65 1010.9
20260504202541 26 185 17.7 24.1 0.00 0.00 0.00 64 1011.0
20260504201601 26 225 16.1 25.7 0.00 0.00 0.00 63 1011.1
20260504201050 26 204 19.3 30.6 0.00 0.00 0.00 64 1011.1
20260504200051 26 185 17.7 27.4 0.00 0.00 0.00 64 1011.3
20260504195554 26 180 17.7 22.5 0.00 0.00 0.00 63 1011.4
20260504195104 26 213 14.5 20.9 0.00 0.00 0.00 64 1011.5
20260504194526 26 206 12.9 25.7 0.00 0.00 0.00 65 1011.7
20260504194137 26 196 16.1 25.7 0.00 0.00 0.00 64 1011.9
20260504193622 26 167 17.7 25.7 0.00 0.00 0.00 65 1011.9
20260504193053 26 189 19.3 25.7 0.00 0.00 0.00 65 1012.0
20260504192542 26 172 16.1 25.7 0.00 0.00 0.00 65 1011.9
20260504191602 26 211 16.1 27.4 0.00 0.00 0.00 66 1012.1
20260504191044 26 171 19.3 27.4 0.00 0.00 0.00 65 1012.1
20260504190045 25 184 17.7 27.4 0.00 0.00 0.00 65 1012.3
20260504185537 25 162 14.5 27.4 0.00 0.00 0.00 65 1012.3
20260504184555 25 159 16.1 22.5 0.00 0.00 0.00 67 1012.6
20260504184059 25 171 14.5 27.4 0.00 0.00 0.00 66 1012.6
20260504183109 25 168 12.9 27.4 0.00 0.00 0.00 65 1012.8
20260504182550 25 158 12.9 24.1 0.00 0.00 0.00 67 1012.8
20260504181611 25 195 16.1 29.0 0.00 0.00 0.00 66 1012.9
20260504181100 25 221 17.7 29.0 0.00 0.00 0.00 65 1013.0
20260504180600 25 180 12.9 24.1 0.00 0.00 0.00 67 1013.1
20260504180030 25 178 16.1 27.4 0.00 0.00 0.00 64 1013.1
20260504175541 25 207 16.1 27.4 0.00 0.00 0.00 64 1013.0
20260504175143 25 198 20.9 27.4 0.00 0.00 0.00 64 1013.1
20260504174548 25 183 14.5 29.0 0.00 0.00 0.00 64 1013.2
20260504174100 25 196 17.7 29.0 0.00 0.00 0.00 62 1013.3
20260504173601 25 207 14.5 29.0 0.00 0.00 0.00 62 1013.4
20260504173032 25 163 20.9 35.4 0.00 0.00 0.00 64 1013.3
20260504172632 25 201 19.3 35.4 0.00 0.00 0.00 64 1013.4
20260504172119 25 186 20.9 32.2 0.00 0.00 0.00 63 1013.3
20260504171528 24 171 22.5 32.2 0.00 0.00 0.00 64 1013.5
20260504171030 24 188 19.3 30.6 0.00 0.00 0.00 64 1013.6
20260504170641 24 150 19.3 30.6 0.00 0.00 0.00 65 1013.7
20260504151053 22 229 19.3 27.4 0.00 0.00 0.00 71 1014.6
20260504141028 20 187 16.1 24.1 0.00 0.00 0.00 74 1014.7
20260504130623 17 170 11.3 17.7 0.00 0.00 0.00 77 1014.9
20260504110103 15 173 9.7 12.9 0.00 0.00 0.00 81 1014.1